Location: Santa Maria di Sala
(45.5070°N, 12.0300°E)
Time: 08:06:37
(UTC+02:00)

STRAND 1 - Pass Details

Date: 27 February 2024
Orbit: 764 x 779 km, 98.4° (Epoch: 16 April)

Event Time Altitude Azimuth Distance (km) Brightness Sun altitude
Rises 04:28:38 0° 125° (SE) 3,254 ? -26.3°
Reaches altitude 10° 04:31:23 10° 111° (ESE) 2,332 ? -25.8°
Maximum altitude 04:35:16 22° 62° (ENE) 1,653 ? -25.1°
Drops below altitude 10° 04:39:09 10° 13° (NNE) 2,342 ? -24.5°
Sets 04:41:55 0° 358° (N) 3,274 ? -24.0°
